Miscellaneous Local Product
Issued by NWS Hastings, NE

Home | Current Version | Previous Version | Text Only | Print | Product List | Glossary Off
Versions: 1 2 3 4 5 6 7 8 9 10 11 12 13 14 15 16 17 18 19 20 21 22 23 24 25 26 27 28 29 30 31 32 33 34 35 36 37 38 39 40 41 42 43 44 45 46 47 48 49 50

000
AXUS43 KGID 290002
MISGRI

GID CWA HOURLY WEATHER ROUNDUP
NATIONAL WEATHER SERVICE HASTINGS NE
700 PM CDT FRI AUG 28 2015

NOTE: "FAIR" INDICATES FEW OR NO CLOUDS BELOW 12,000 FEET WITH NO
SIGNIFICANT WEATHER AND/OR OBSTRUCTIONS TO VISIBILITY.

...SOUTH CENTRAL NEBRASKA...

CITY           SKY/WX    TMP DP  RH WIND       PRES   REMARKS
GRAND ISLAND   CLOUDY    73  61  65 N12       29.98R
HASTINGS       CLOUDY    73  63  70 N12       29.97R
KEARNEY        SUNNY     75  59  57 N16G22    29.99R
ORD            MOSUNNY   74  61  63 N7        29.98S
YORK           CLOUDY    72  64  78 N6        29.95S
AURORA         CLOUDY    72  64  77 N13       29.97R
LEXINGTON      SUNNY     78  62  58 N8        30.00S
HOLDREGE       SUNNY     74  62  66 N8        29.99R
HEBRON         PTSUNNY   74  62  65 N8        29.94R

...NEBRASKA PANHANDLE...

CITY           SKY/WX    TMP DP  RH WIND       PRES   REMARKS
CHADRON        MOSUNNY   86  51  29 SE8       30.04S HAZE
ALLIANCE       SUNNY     83  49  30 N9        30.09S
SCOTTSBLUFF    SUNNY     84  51  31 NE5       30.10S
SIDNEY         SUNNY     84  42  22 NE13      30.13S

...WESTERN AND NORTH CENTRAL NEBRASKA...

CITY           SKY/WX    TMP DP  RH WIND       PRES   REMARKS
VALENTINE      SUNNY     79  61  53 E3        30.02R
AINSWORTH      SUNNY     74  64  71 E3        30.03S
ONEILL         SUNNY     74  64  69 N5        30.00S
BROKEN BOW     SUNNY     77  62  59 NE7       30.02R
IMPERIAL       SUNNY     85  56  37 NE9       30.05R
NORTH PLATTE   SUNNY     79  60  52 NE8       30.02R
MCCOOK         SUNNY     83  61  47 N12       30.00R

...EASTERN NEBRASKA...

CITY           SKY/WX    TMP DP  RH WIND       PRES   REMARKS
NORFOLK        SUNNY     73  63  70 N17       29.94R
SO SIOUX CITY  CLOUDY    65  59  81 N13       29.93R
TEKAMAH        CLOUDY    66  64  93 N15       29.90R
COLUMBUS       CLOUDY   N/A N/A N/A N9G16     29.93S
ALBION         SUNNY     73  63  69 NW13      29.97R
OMAHA EPPLEY   CLOUDY    71  65  81 NW8       29.88R
OFFUTT AFB     PTSUNNY   72  65  79 NW12      29.87R
MILLARD        CLOUDY    71  65  79 NW12      29.89R
LINCOLN        CLOUDY    73  64  73 NW7       29.92R
NEBRASKA CITY  MOSUNNY   73  62  69 NW14      29.88S
BEATRICE       PTSUNNY   73  64  75 NW13      29.91S
FALLS CITY     CLOUDY    73  72  96 NE5       29.86R THUNDER

...NORTHERN KANSAS...

CITY           SKY/WX    TMP DP  RH WIND       PRES   REMARKS
GOODLAND       SUNNY     87  47  24 NE14      30.05R
HILL CITY      SUNNY     86  60  41 N16       29.97R
NORTON         CLEAR     79  55  44 N12G18    29.98R
PHILLIPSBURG   SUNNY     82  63  51 N16       29.96R
SMITH CENTER   SUNNY     79  61  53 N14       29.96R
HAYS           SUNNY     88  61  40 N18       29.94R
RUSSELL        SUNNY     85  63  47 N16       29.92R
CONCORDIA      PTSUNNY   76  66  71 N15       29.92R
SALINA         PTSUNNY   84  68  58 N8        29.89R
TOPEKA         PTSUNNY   77  67  71 S10       29.88S



USA.gov is the U.S. government's official web portal to all federal, state and local government web resources and services.